Regional Weather Roundup
Issued by NWS

Home | Current Version | Previous Version | Text Only | Print | Product List | Glossary On
Versions: 1 2 3 4 5 6 7 8 9 10 11 12 13 14 15 16 17 18 19 20 21 22 23 24 25 26 27 28 29 30 31 32 33 34 35 36 37 38 39 40 41 42 43 44 45 46 47 48 49 50
000
ASUS46 KLOX 250112
RWRCA

SOUTHERN CALIFORNIA WEATHER ROUNDUP
NATIONAL WEATHER SERVICE OXNARD CALIFORNIA
600 PM PDT FRI OCT 24 2014

NOTE: "FAIR" INDICATES FEW OR NO CLOUDS BELOW 12,000 FEET WITH NO
SIGNIFICANT WEATHER AND/OR OBSTRUCTIONS TO VISIBILITY.

  -  STATIONS PRECEEDED BY AN ASTERISK (*) ARE NOT NWS OR FAA
     STATIONS AND ARE NOT SUBJECT TO NWS AND FAA QUALITY CONTROL.

CAZ041-042-087-250200-
LA AND ORANGE COUNTY COASTAL AREAS


CITY           SKY/WX    TMP DP  RH WIND       PRES   REMARKS
L.A. DOWNTOWN  CLEAR     78  60  53 CALM      29.92R
L.A. AIRPORT   CLEAR     71  64  78 W7        29.93S
LONG BEACH     CLEAR     78  45  30 S6        29.92S

CITY           SKY/WX    TMP DP  RH WIND       PRES   REMARKS
AVALON           N/A     72 N/A N/A MISG        N/A
FULLERTON      CLEAR     81  43  26 S5        29.91S
*GETTY CENTER    N/A     77  43  29 SW3         N/A
HAWTHORNE      CLEAR     75  61  61 W6        29.93S
*LEO CARRILLO    N/A     70  61  73 W6          N/A
*LOS ALAMITOS  CLEAR     73  60  62 S5        29.92S
*REDONDO BEACH   N/A     69  64  84 CALM      29.92S
SANTA ANA      CLEAR     79  58  48 SW5       29.92S
STA MONICA APT CLEAR     73  59  61 SW6       29.93S
TORRANCE       CLEAR     73  63  68 NW12      29.93S
*UCLA            N/A     73  57  56 SW1       29.91S

$$

CAZ547-548-048-250200-
LA COUNTY VALLEYS AND INLAND EMPIRE


CITY           SKY/WX    TMP DP  RH WIND       PRES   REMARKS
BURBANK        CLEAR     82  41  23 S6        29.93S
VAN NUYS       FAIR      81  30  15 S8        29.93S

CITY           SKY/WX    TMP DP  RH WIND       PRES   REMARKS
CORONA AIRPORT CLEAR     82  40  22 NW8       29.93R
*CHATSWORTH      N/A     84  36  17 CALM      29.90S
CHINO          CLEAR     82  28  14 W12       29.94S
*CLAREMONT       N/A     80  25  13 W5          N/A
MARCH AFB      CLEAR     81  43  26 NW8       29.97R
*NORTHRIDGE      N/A     81  27  13 SE2         N/A
ONTARIO        CLEAR     84  25  11 W10       29.94S
*PASADENA        N/A     82  50  32 E1          N/A
RIVERSIDE      CLEAR     84  30  14 W7        29.93R
SAN BERNARDINO CLEAR     82  32  16 W6        29.96R
*SAN GABRIEL     N/A     86  23  10 CALM      29.87S
*SAN RAFAEL HI   N/A     81  46  28 NE5         N/A
*SAUGUS          N/A     80  25  13 S8G25       N/A
*WHITEMAN AP   CLEAR     84  32  15 SE6       29.97F
*WHITTIER HILL   N/A     83  32  16 S3          N/A
*WOODLAND HILL   N/A     81  25  12 SE3         N/A

$$

CAZ054-055-250200-
LA AND SAN BERNARDINO COUNTY MOUNTAINS


CITY           SKY/WX    TMP DP  RH WIND       PRES   REMARKS
*ACTON           N/A     82  28  14 S9          N/A
*BIG BEAR AIRP PTCLDY    59  30  33 W6        30.25S
*BIG PINES       N/A     57  29  34 CALM        N/A
MT WILSON NWS    N/A    N/A N/A N/A MISG        N/A
SANDBERG       CLEAR     71  25  17 S16G26    30.10S

$$

CAZ028-029-059-060-099-250200-
ANTELOPE VALLEY AND SURROUNDING AREAS


CITY           SKY/WX    TMP DP  RH WIND       PRES   REMARKS
LANCASTER      CLEAR     77  30  17 SW15      29.98S
PALMDALE       CLEAR     80  29  15 SW18      29.98S
*POPPY PARK      N/A     75  29  18 SW14G25     N/A

CITY           SKY/WX    TMP DP  RH WIND       PRES   REMARKS
29 PALMS       PTCLDY    83  40  21 S8        30.03R
BARSTOW/DAGGET CLEAR     86  37  17 E17       29.93S
BISHOP         CLEAR     75  19  12 SE21G29   29.96R
CHINA LAKE     PTCLDY    83  26  12 S7        29.95S
EDWARDS AFB    CLEAR     82  31  16 W10       29.96R
MOJAVE           N/A     77  28  16 SW16G25   30.00S
NEEDLES        CLEAR     91  37  15 SW7       29.92S
VICTORVILLE    PTCLDY    81  28  15 S10       30.01R

$$

CAZ039-040-250200-
VENTURA AND SANTA BARBARA COUNTY COAST


CITY           SKY/WX    TMP DP  RH WIND       PRES   REMARKS
CAMARILLO      CLEAR     71  57  61 S5        29.93R
NWS OXNARD       N/A     72  56  56 CALM      29.93R
OXNARD AIRPORT CLEAR     70  64  81 W5        29.93S
*POINT MUGU    PTCLDY    70  63  78 SW5       29.93S
SBA APT/GOLETA CLEAR     69  60  73 W5        29.92S
*SANTA BARBARA   N/A     76  57  51 CALM      30.00S
*VENTURA         N/A     74  50  42 CALM      29.96S

$$

CAZ044-045-250200-
VENTURA COUNTY VALLEYS


CITY           SKY/WX    TMP DP  RH WIND       PRES   REMARKS
*SIMI VALLEY     N/A     78  55  46 W3        29.89R
*OJAI            N/A     74  38  27 CALM      29.89R
*FILLMORE        N/A     78  54  43 CALM      29.83R

$$

CAZ053-250200-
VENTURA COUNTY MOUNTAINS


CITY           SKY/WX    TMP DP  RH WIND       PRES   REMARKS
*LOCKWOOD VLY    N/A     63  19  19 MISG        N/A
*ROSE VALLEY     N/A     70  36  28 MISG        N/A

$$

CAZ034-035-036-250200-
CENTRAL COAST AND SANTA YNEZ VALLEY


CITY           SKY/WX    TMP DP  RH WIND       PRES   REMARKS
SAN LUIS OBISP CLEAR     65  57  75 NW9       29.94R
SANTA MARIA    CLEAR     66  57  72 NW10      29.95R

CITY           SKY/WX    TMP DP  RH WIND       PRES   REMARKS
*CAL POLY SLO    N/A     72  59  64 SW2         N/A
*LOMPOC        CLEAR     64  55  72 W9        29.95S
*PISMO BEACH     N/A     65  60  83 CALM      29.95S
*SANTA YNEZ    FAIR      77  37  24 NW6       29.92S

$$

CAZ037-038-051-250200-
SAN LUIS OBISPO COUNTY INTERIOR AND CUYAMA VALLEY


CITY           SKY/WX    TMP DP  RH WIND       PRES   REMARKS
*CUYAMA          N/A     80  23  12 SE12      29.87S
PASO ROBLES    CLEAR     72  43  35 SW15      29.92S

$$

CAZ032-033-061-250200-
SOUTHERN DESERTS


CITY           SKY/WX    TMP DP  RH WIND       PRES   REMARKS
BLYTHE         CLEAR     92  46  20 SE3       29.88S
IMPERIAL       CLEAR     93  44  18 CALM      29.85S
PALM SPRINGS   PTCLDY    90  46  21 E5        29.91R
THERMAL        CLEAR     84  50  30 CALM      29.84F

$$

ELSEWHERE ACROSS THE WESTERN UNITED STATES AND MEXICO


CITY           SKY/WX    TMP DP  RH WIND       PRES   REMARKS
DENVER, CO     CLEAR     63  28  26 SE8       30.18R
GRAND CANYON,  CLEAR     56  22  26 CALM      30.31R
HONOLULU, HI   MOSUNNY   84  70  61 NE15      29.97F
KAHULUI, MAUI  MOSUNNY   86  66  51 E21G29    29.95F
LAKE TAHOE, CA CLEAR     64  19  17 SW17G26   30.05S
LAS VEGAS, NV  FAIR      84  38  19 CALM      29.94F
MAMMOTH LAKES, FAIR      61  14  16 NW7       30.16R
MEXICO CITY, M MOCLDY    63  46  55 N15       30.38R
PHOENIX, AZ    CLEAR     92  44  19 E5        29.93S
PORTLAND, OR   LGT RAIN  54  51  90 E10       29.81F
RENO, NV       MOCLDY    74  20  13 SW15G24   29.94S
SALT LAKE CITY CLEAR     65  40  39 W5        30.08F
SAN DIEGO, CA  CLEAR     77  56  48 NW3       29.94R
SAN FRANCISCO, MOCLDY    69  58  67 SW12      29.89S
SAN JOSE, CA   MOCLDY    68  52  56 VRB7      29.88S
SEATTLE, WA    CLOUDY    56  47  71 N12       29.87F
TIJUANA, MEX   CLEAR     81  43  26 N6        29.96S

$$

STATION/POSITION TIME  TEMP    WIND        PRES    VSBY  WAVE
                       AIR SEA DIR/SP/G                  HT/PER
                 (UTC) (F)     (DEG/KT/KT) (MB)    (MI)  (FT/S)
POINT ARGUELLO B NOT AVBL
WEST SANTA BARBA 0100   64 65  300/ 10/ 14 1013.0R         7/12
POINT CONCEPTION NOT AVBL
EAST SANTA BARBA 0100   66 72  250/  8/  8 1013.7F
SANTA MONICA BAY 0100   64 71  270/  2/  4 1013.2F         3/11



USA.gov is the U.S. government's official web portal to all federal, state and local government web resources and services.